Station 46025 (LLNR 181) - Santa Monica Basin - 33NM WSW of Santa Monica, CA Image indicating link to RSS feed of recent meteorological observations for station 46025


Conditions at 46025 as of
(2:10 am PDT)
0910 GMT on 05/29/2024:
     

Click on the graph icon in the table below to see a time series plot of the last five days of that observation.

5-day plot - Wind Direction Wind Direction (WDIR): E ( 100 deg true )
5-day plot - Wind Speed Wind Speed (WSPD): 7.8 kts
5-day plot - Wind Gust Wind Gust (GST): 9.7 kts
5-day plot - Wave Height Wave Height (WVHT): 3.0 ft
5-day plot - Average Wave Period Average Period (APD): 5.2 sec
5-day plot - Mean Wave Direction Mean Wave Direction (MWD): W ( 273 deg true )
5-day plot - Atmospheric Pressure Atmospheric Pressure (PRES):30.03 in
5-day plot - Air Temperature Air Temperature (ATMP): 57.4 °F
5-day plot - Water Temperature Water Temperature (WTMP): 61.2 °F
5-day plot - Dew Point Dew Point (DEWP): 54.9 °F
5-day plot - Wind Speed at 10 Meters Wind Speed at 10 meters (WSPD10M): 7.8 kts
5-day plot - Wind Speed at 20 Meters Wind Speed at 20 meters (WSPD20M): 7.8 kts
5-day plot -  Wind Speed, Wind Gust and Atmospheric Pressure Combined plot of Wind Speed, Gust, and Air Pressure
Supplemental Measurements
Highest 1-minute Wind Speed
Time (PDT)5-day plot - 1-Minute Wind Speed WSPD 5-day plot - 1-Minute Wind Direction WDIR
2:10 am 7.8 kts-
Previous observations
TIME
(PDT)
5-day plot - Wind Direction
WDIR
 
5-day plot - Wind Speed
WSPD
kts
5-day plot - Wind Gust
GST
kts
5-day plot - Wave Height
WVHT
ft
5-day plot - Dominant Wave Period
DPD
sec
5-day plot - Average Wave Period
APD
sec
5-day plot - Mean Wave Direction
MWD
 
5-day plot - Atmospheric Pressure
PRES
in
5-day plot - Pressure Tendency
PTDY
in
5-day plot - Air Temperature
ATMP
°F
5-day plot - Water Temperature
WTMP
°F
5-day plot - Dew Point
DEWP
°F
5-day plot - Salinity
SAL
psu
5-day plot - Visibility
VIS
nmi
5-day plot - Tide (above MLLW)
TIDE
ft
2024-05-29 02:00 amESE 7.8 9.7----30.03-0.02 57.4 61.2 54.9---
2024-05-29 01:50 amESE 7.8 9.7 3.0 135.2SSW30.03- 57.4 61.2 54.9---
2024-05-29 01:40 amESE 7.8 9.7 3.0-5.2SSW30.03- 57.4 61.2 55.0---
2024-05-29 01:30 amESE 7.8 9.7----30.03- 57.4 61.3 54.9---
2024-05-29 01:20 am E 5.8 9.7 3.0 65.2 W30.03- 57.6 61.3 55.2---
2024-05-29 01:10 am E 5.8 7.8 3.0-5.2 W30.04- 57.4 61.3 54.9---
2024-05-29 01:00 am E 5.8 7.8----30.04-0.01 57.2 61.5 54.7---
2024-05-29 12:50 am E 3.9 7.8 3.0 75.2 W30.04- 57.0 61.5 54.5---
2024-05-29 12:40 amESE 5.8 7.8 3.0-5.2 W30.04- 57.0 61.5 54.5---
2024-05-29 12:30 amENE 3.9 7.8----30.04- 57.0 61.5 54.5---
2024-05-29 12:20 amENE 3.9 7.8 3.0 65.0 W30.04- 57.0 61.5 54.5---
2024-05-29 12:10 am E 3.9 5.8----30.05- 57.0 61.5 54.5---
2024-05-29 12:00 am E 5.8 7.8----30.05+0.00 57.2 61.5 54.7---
2024-05-28 11:50 pmESE 5.8 7.8 3.0 54.9 W30.05- 57.4 61.5 54.9---
2024-05-28 11:40 pm E 5.8 7.8----30.05- 57.6 61.5 54.9---
2024-05-28 11:30 pm E 5.8 7.8----30.04- 57.2 61.5 54.3---
2024-05-28 11:20 pm E 3.9 5.8 2.6 75.0 W30.05- 57.2 61.5 54.5---
2024-05-28 11:10 pm E 3.9 5.8 2.6-5.0 W30.05- 57.0 61.5 54.3---
2024-05-28 11:00 pm E 3.9 5.8----30.05+0.01 57.0 61.5 54.3---
2024-05-28 10:50 pm E 1.9 3.9 3.0 165.1 W30.05- 56.8 61.5 54.1---
2024-05-28 10:40 pmNNE 1.9 3.9----30.05- 56.7 61.5 54.0---
2024-05-28 10:30 pmNNE 3.9 5.8----30.05- 56.7 61.3 54.1---
2024-05-28 10:20 pm N 1.9 3.9 3.0 54.8 W30.05- 56.7- 54.3---
2024-05-28 10:10 pm N 1.9 3.9----30.05- 56.7 61.2 54.3---
2024-05-28 10:00 pmNNE 1.9 1.9----30.05+0.01 56.8 61.2 54.5---
2024-05-28 09:50 pm N 1.9 1.9 2.6 65.1 W30.04- 57.0 61.2 54.7---
2024-05-28 09:40 pm NE 1.9 3.9 2.6-5.1 W30.04- 57.0 61.2 54.7---
2024-05-28 09:30 pmENE 1.9 3.9----30.04- 57.0 61.3 54.5---
2024-05-28 09:20 pm NE 1.9 1.9 2.6 165.1ENE30.04- 57.0 61.3 54.5---
2024-05-28 09:10 pm N 1.9 3.9 2.6-5.1ENE30.04- 57.0 61.2 54.3---
2024-05-28 09:00 pmNNE 1.9 5.8----30.04+0.00 57.0 61.2 54.3---
2024-05-28 08:50 pm N 1.9 3.9 2.3 165.2WSW30.04- 56.8 61.2 54.1---
2024-05-28 08:40 pm NW 1.9 3.9----30.04- 56.8 61.2 54.1---
2024-05-28 08:30 pmWNW 1.9 3.9----30.04- 56.7 61.2 54.0---
2024-05-28 08:20 pm- 0.0 1.9 2.3 155.1WSW30.04- 56.7 61.2 54.0---
2024-05-28 08:10 pm W 1.9 3.9 2.3-5.1WSW30.04- 56.7- 54.0---
2024-05-28 08:00 pmWSW 3.9 5.8----30.04+0.00 57.0 61.0 54.3---
2024-05-28 07:50 pmWSW 3.9 5.8 2.3 125.1 S30.04- 57.0 61.0 54.1---
2024-05-28 07:40 pmWSW 3.9 5.8----30.03- 57.2 61.0 54.1---
2024-05-28 07:30 pmWSW 3.9 5.8----30.04- 57.2 61.0 54.0---
2024-05-28 07:20 pm W 3.9 5.8 2.3 165.0SSE30.03- 57.2 61.0 54.0---
2024-05-28 07:10 pm W 3.9 5.8 2.3-5.0SSE30.03- 57.4 61.0 54.3---
2024-05-28 07:00 pm W 5.8 5.8----30.03-0.02 57.2 61.0 54.3---
2024-05-28 06:50 pm W 5.8 9.7 2.3 165.1 NW30.03- 56.8 61.2 54.3---
2024-05-28 06:40 pm W 7.8 9.7 2.3-5.1 NW30.03- 57.0 61.2 54.5---
2024-05-28 06:30 pm W 7.8 11.7----30.03- 57.2 61.2 54.9---
2024-05-28 06:20 pmWNW 7.8 9.7 2.3 145.2SSE30.04- 57.4 61.2 55.0---
2024-05-28 06:10 pmWNW 7.8 9.7 2.3-5.2SSE30.04- 57.6 61.5 55.0---
2024-05-28 06:00 pmWNW 7.8 9.7----30.04-0.02 57.6 61.5 55.0---
2024-05-28 05:50 pm W 7.8 9.7 2.3 165.4WNW30.04- 57.6 61.3 55.0---
2024-05-28 05:40 pmWNW 7.8 9.7----30.05- 57.6 61.5 55.0---
2024-05-28 05:30 pmWNW 7.8 11.7----30.05- 57.4- 54.9---
2024-05-28 05:20 pmWNW 7.8 11.7 2.3 165.1WSW30.05- 57.7 61.3 55.0---
2024-05-28 05:10 pmWNW 7.8 11.7----30.05- 57.9 61.7 55.2---
2024-05-28 05:00 pm NW 7.8 9.7----30.05-0.02 58.1 61.7 55.4---
2024-05-28 04:50 pmNNW 5.8 9.7 2.6 165.4 W30.05- 57.9 61.7 55.2---
2024-05-28 04:40 pmNNW 5.8 9.7----30.05- 57.7 61.9 55.0---
2024-05-28 04:20 pmNNW 5.8 9.7 2.3 165.0 SW30.05- 57.6 61.9 54.7---
2024-05-28 04:10 pmNNW 5.8 7.8----30.05- 57.4 61.7 54.3---
2024-05-28 04:00 pm NW 3.9 7.8----30.06-0.03 57.4 61.5 54.0---
2024-05-28 03:50 pm NW 3.9 5.8 2.3 164.9WSW30.06- 57.7 61.5 54.0---
2024-05-28 03:40 pm- 0.0 3.9----30.06- 58.1 61.5 54.0---
2024-05-28 03:30 pmSSW 1.9 3.9----30.06- 57.9 61.5 54.0---
2024-05-28 03:20 pm W 1.9 3.9 2.3 144.9SSW30.06- 57.6 61.2 53.6---
2024-05-28 03:10 pm SW 1.9 3.9 2.3-4.9SSW30.06- 57.6 61.2 53.6---
2024-05-28 03:00 pmSSW 1.9 3.9----30.07-0.02 57.6 61.3 53.8---
2024-05-28 02:50 pmSSE 1.9 3.9 2.3 134.7 SE30.07- 57.6 61.3 54.0---
2024-05-28 02:40 pm SE 1.9 3.9 2.3-4.7 SE30.07- 57.4 61.3 53.8---
2024-05-28 02:30 pm S 3.9 3.9----30.07- 57.4 61.5 53.8---
2024-05-28 02:20 pmSSE 1.9 3.9 2.6 164.6 W30.07- 57.4 61.3 53.8---
2024-05-28 02:10 pmSSE 1.9 3.9 2.6-4.6 W30.07- 57.2 61.5 53.8---
2024-05-28 02:00 pmSSE 1.9 3.9----30.07-0.01 57.2 61.3 54.0---
2024-05-28 01:50 pmSSE 1.9 5.8 2.6 154.8SSW30.07- 57.0 61.3 54.0---
2024-05-28 01:40 pm S 3.9 5.8----30.07- 56.8- 53.8---
2024-05-28 01:30 pm S 1.9 5.8----30.08- 56.7 61.3 53.8---
2024-05-28 01:20 pmSSE 3.9 5.8 3.0 164.8WSW30.08- 56.7 61.3 53.8---
2024-05-28 01:10 pmSSE 3.9 5.8----30.08- 56.5 61.3 53.8---
2024-05-28 01:00 pmSSE 5.8 7.8----30.09- 56.3 61.3 53.6---
2024-05-28 12:50 pmSSE 5.8 7.8 2.6 64.9 W30.09- 56.5 61.3 53.8---
2024-05-28 12:40 pmSSE 3.9 7.8----30.09- 56.7 61.3 54.1---
2024-05-28 12:30 pm S 3.9 5.8----30.09- 56.7 61.3 54.1---
2024-05-28 12:20 pmSSE 5.8 7.8 2.6 64.8 W30.09- 56.7 61.3 54.3---
2024-05-28 12:10 pm SE 5.8 9.7----30.09- 56.8 61.3 54.7---
2024-05-28 12:00 pmESE 7.8 9.7----30.09- 56.7 61.3 54.5---
2024-05-28 11:50 amESE 7.8 11.7 3.0 64.9 W30.09- 56.5 61.3 54.3---
2024-05-28 11:40 am SE 9.7 11.7----30.09- 56.5 61.3 54.1---
2024-05-28 11:30 am SE 7.8 9.7----30.09- 56.3 61.2 54.0---
2024-05-28 11:20 am SE 7.8 11.7 3.0-5.0 W30.09- 56.3 61.3 54.0---
2024-05-28 11:10 am--- 3.0 5----- 61.3----
2024-05-28 11:00 amSSE 7.8 9.7----30.09+0.03 56.3 61.2 53.8---
2024-05-28 10:50 amSSE 7.8 9.7 3.0 75.3WSW30.08- 56.3 61.2 53.8---
2024-05-28 10:40 amSSE 7.8 11.7----30.08- 56.3 61.2 53.8---
2024-05-28 10:30 amSSE 7.8 9.7----30.08- 56.1 61.2 53.4---
2024-05-28 10:20 amSSE 5.8 9.7 3.0 65.2WSW30.08- 55.8 61.2 53.1---
2024-05-28 10:10 amSSE 3.9 5.8 3.0-5.2WSW30.08- 55.6 61.2 52.9---
2024-05-28 10:00 amSSE 5.8 7.8----30.08+0.03 55.4 61.0 52.7---
2024-05-28 09:50 amSSE 5.8 7.8 3.0 75.2WSW30.08- 55.2 61.0 52.7---
2024-05-28 09:40 amSSE 3.9 5.8 3.0-5.2WSW30.07- 55.0 61.0 52.5---
2024-05-28 09:30 amSSE 5.8 9.7----30.07- 55.4 61.0 52.9---
2024-05-28 09:20 am S 5.8 7.8 3.0 65.3 W30.07- 55.4 61.0 53.1---
2024-05-28 09:10 am S 5.8 7.8 3.0-5.3 W30.07- 55.2 61.0 52.9---
2024-05-28 09:00 amSSE 5.8 9.7----30.07+0.04 55.2 61.0 53.1---
2024-05-28 08:50 amSSE 5.8 9.7 3.0 75.5 W30.06- 55.2 61.0 53.2---
2024-05-28 08:40 amSSE 3.9 5.8 3.0-5.5 W30.06- 54.9 61.0 52.9---
2024-05-28 08:30 am S 5.8 7.8----30.06- 54.9 61.0 52.9---
2024-05-28 08:20 amSSE 3.9 7.8 3.0 65.5 W30.06- 54.9 61.0 53.1---
2024-05-28 08:10 amSSE 5.8 9.7 3.0-5.5 W30.06- 54.9 61.2 53.1---
2024-05-28 08:00 amSSE 7.8 9.7----30.06+0.04 54.9 61.2 53.4---
2024-05-28 07:50 amSSE 7.8 9.7 3.0 75.3 W30.06- 54.9 61.2 53.4---
2024-05-28 07:40 amSSE 7.8 9.7----30.05- 54.9 61.2 53.4---
2024-05-28 07:30 amSSE 7.8 11.7----30.05- 55.0 61.2 53.8---
2024-05-28 07:20 amSSE 7.8 9.7 3.0 65.4 W30.05- 55.2 61.2 54.0---
2024-05-28 07:10 am SE 5.8 9.7 3.0-5.4 W30.05- 55.8 61.2 54.5---
2024-05-28 07:00 amESE 5.8 9.7----30.05+0.02 55.9 61.2 54.7---
2024-05-28 06:50 am SE 5.8 7.8 3.3 65.3 W30.04- 55.9 61.2 54.5---
2024-05-28 06:40 amESE 7.8 11.7----30.03- 56.1 61.2 54.7---
2024-05-28 06:30 amESE 5.8 7.8----30.03- 55.9 61.2 54.5---
2024-05-28 06:20 am SE 5.8 7.8 3.3 75.1 W30.03- 55.8 61.2 54.3---
2024-05-28 06:10 am SE 5.8 7.8 3.3-5.1 W30.03- 55.6 61.2 54.1---
2024-05-28 06:00 am SE 3.9 5.8----30.02+0.00 55.6 61.2 54.1---
2024-05-28 05:50 am SE 3.9 5.8 3.0 65.0 W30.02- 55.4 61.3 54.0---
2024-05-28 05:40 am SE 3.9 5.8----30.02- 55.4 61.3 53.8---
2024-05-28 05:30 am SE 1.9 5.8----30.01- 55.4 61.3 53.8---
2024-05-28 05:20 amSSE 3.9 5.8 3.3 65.0 W30.02- 55.0 61.3 53.4---
2024-05-28 05:10 am S 1.9 3.9----30.02- 54.9 61.3 53.2---
2024-05-28 05:00 amSSW 3.9 5.8----30.02+0.00 54.7 61.3 53.1---
2024-05-28 04:50 amSSW 3.9 5.8 3.0 65.0 W30.02- 54.9 61.3 53.2---
2024-05-28 04:40 am SW 3.9 5.8----30.02- 55.0 61.3 53.4---
2024-05-28 04:30 am SW 3.9 5.8----30.02- 54.9 61.3 53.2---
2024-05-28 04:20 am SW 1.9 5.8 3.0 54.9 W30.02- 55.0 61.3 53.4---
2024-05-28 04:10 am SW 3.9 7.8----30.02- 55.2 61.3 53.4---
2024-05-28 04:00 amWSW 5.8 7.8----30.02-0.02 55.8 61.3 54.0---
2024-05-28 03:50 am SW 5.8 7.8 3.0 65.0 W30.02- 55.9 61.3 54.0---
2024-05-28 03:40 amSSW 5.8 7.8----30.02- 55.8 61.3 53.8---
2024-05-28 03:30 amSSW 5.8 7.8----30.02- 56.1 61.3 54.1---
2024-05-28 03:20 am SW 7.8 9.7 3.0 164.8ESE30.02- 56.3 61.3 54.3---
2024-05-28 03:10 am SW 5.8 9.7 3.0-4.8ESE30.02- 56.3 61.3 54.3---
2024-05-28 03:00 am SW 7.8 9.7----30.03-0.02 56.5 61.3 54.5---
2024-05-28 02:50 am SW 5.8 7.8 3.0 134.9SSE30.03- 56.8 61.3 54.7---
2024-05-28 02:40 amSSE 3.9 5.8----30.03- 56.8 61.3 54.9---
2024-05-28 02:30 am S 3.9 5.8----30.03- 56.8 61.3 54.9---
2024-05-28 02:20 am SW 3.9 5.8 3.0 54.7 W30.03- 57.0 61.3 55.0---
2024-05-28 02:10 am SW 1.9 5.8----30.03- 56.8 61.3 54.9---
2024-05-28 02:00 am SW 1.9 3.9----30.03-0.02 57.0 61.3 55.0---
2024-05-28 01:50 amNNW 1.9 3.9 3.0 54.9 W30.03- 57.0 61.2 55.0---

Detailed Wave Summary
for 46025 as of (2:10 am PDT)
0910 GMT on 05/29/2024:

These wave data are displayed in rounded times.

     

Click on the graph icon in the table below to see a time series plot of the last five days of that observation.

5-day plot - Significant Wave Height Significant Wave Height (WVHT): 3.0 ft
5-day plot - Swell Height Swell Height (SwH): 2.6 ft
5-day plot - Swell Period Swell Period (SwP): 5.9 sec
5-day plot - Swell Direction Swell Direction (SwD): W
5-day plot - Wind Wave Height Wind Wave Height (WWH): 1.3 ft
5-day plot - Wind Wave Period Wind Wave Period (WWP): 4.0 sec
5-day plot - Wind Wave Direction Wind Wave Direction (WWD): W
5-day plot - Wave Steepness Wave Steepness (STEEPNESS): STEEP
5-day plot - Average Wave Period Average Wave Period (APD): 5.2 sec
Previous observations
TIME
(PDT)
5-day plot - Wave Height
WVHT
ft
5-day plot - Swell Height
SwH
ft
5-day plot - Swell Period
SwP
sec
5-day plot - Swell Direction
SwD
 
5-day plot - Wind Wave Height
WWH
ft
5-day plot - Wind Wave Period
WWP
sec
5-day plot - Wind Wave Direction
WWD
 
5-day plot - Wave Steepness
STEEPNESS
 
5-day plot - Average Wave Period
APD
sec
2024-05-29 01:40 am 3.0 2.6 12.9SSW 1.3 3.4 W SWELL 5.2
2024-05-29 01:10 am 3.0 2.6 6.2 W 1.0 3.2 WSW STEEP 5.2
2024-05-29 12:40 am 3.0 3.0 6.7 W 1.3 3.6 W AVERAGE 5.2
2024-05-29 12:10 am 3.0 2.6 6.2 W 1.3 3.3 WNW STEEP 5.0
2024-05-28 11:40 pm 3.0 2.6 5.3 W 1.3 3.7 W STEEP 4.9
2024-05-28 11:10 pm 2.6 2.3 6.7 W 1.3 3.4 W AVERAGE 5.0
2024-05-28 10:40 pm 3.0 2.6 16.0 W 1.3 3.7 W SWELL 5.1
2024-05-28 10:10 pm 3.0 2.6 5.3 W 1.3 3.4 W STEEP 4.8
2024-05-28 09:40 pm 2.6 2.6 5.9 W 1.0 3.7 W STEEP 5.1
2024-05-28 09:10 pm 2.6 2.3 16.0ENE 1.0 4.0 W N/A 5.1
2024-05-28 08:40 pm 2.3 2.0 16.0WSW 1.0 4.0 WSW N/A 5.2
2024-05-28 08:10 pm 2.3 2.0 14.8WSW 1.0 4.0 W N/A 5.1
2024-05-28 07:40 pm 2.3 2.0 12.1 S 1.0 3.8 WSW N/A 5.1
2024-05-28 07:10 pm 2.3 2.0 16.0SSE 1.0 3.4 WSW N/A 5.0
2024-05-28 06:40 pm 2.3 2.0 16.0 NW 1.0 3.7 WSW N/A 5.1
2024-05-28 06:10 pm 2.3 2.0 13.8SSE 1.0 4.0 WSW N/A 5.2
2024-05-28 05:40 pm 2.3 2.3 16.0WNW 1.0 4.0 WSW N/A 5.4
2024-05-28 05:10 pm 2.3 2.0 16.0WSW 1.0 3.7 W N/A 5.1
2024-05-28 04:40 pm 2.6 2.3 16.0 W 1.0 4.0 WSW N/A 5.4
2024-05-28 04:10 pm 2.3 2.0 16.0 SW 1.0 3.4 W N/A 5.0
2024-05-28 03:40 pm 2.3 2.0 16.0WSW 1.3 3.6 W N/A 4.9
2024-05-28 03:10 pm 2.3 2.0 13.8SSW 1.3 3.8 W N/A 4.9
2024-05-28 02:40 pm 2.3 2.0 12.9 SE 1.3 3.7 W N/A 4.7
2024-05-28 02:10 pm 2.6 2.3 16.0 W 1.3 3.7 WSW SWELL 4.6
2024-05-28 01:40 pm 2.6 2.3 14.8SSW 1.3 3.6 W SWELL 4.8
2024-05-28 01:10 pm 3.0 2.3 16.0WSW 1.3 3.6 W SWELL 4.8
2024-05-28 12:40 pm 2.6 2.3 5.9 W 1.3 4.0 W STEEP 4.9
2024-05-28 12:10 pm 2.6 2.3 6.2 W 1.6 4.3 W STEEP 4.8
2024-05-28 11:40 am 3.0------ STEEP 4.9
2024-05-28 11:10 am 3.0 2.6 5.3 W 1.3 4.2 W STEEP 5.0
2024-05-28 10:40 am 3.0 2.6 6.7WSW 1.0 4.0 W AVERAGE 5.3
2024-05-28 10:10 am 3.0 2.6 5.9WSW 1.0 3.8 WSW STEEP 5.2
2024-05-28 09:40 am 3.0 2.6 6.7WSW 1.0 3.6 WSW AVERAGE 5.2
2024-05-28 09:10 am 3.0 2.6 6.2 W 1.0 3.8 WSW STEEP 5.3
2024-05-28 08:40 am 3.0 2.6 6.7 W 1.0 3.7 WSW AVERAGE 5.5
2024-05-28 08:10 am 3.0 2.6 5.9 W 1.0 3.7 W STEEP 5.5
2024-05-28 07:40 am 3.0 3.0 6.7 W 1.0 3.7 WSW AVERAGE 5.3
2024-05-28 07:10 am 3.0 3.0 6.2 W 1.0 3.7 WSW STEEP 5.4
2024-05-28 06:40 am 3.3 3.0 6.2 W 1.3 3.6 W STEEP 5.3
2024-05-28 06:10 am 3.3 3.0 6.7 W 1.3 3.8 W AVERAGE 5.1
2024-05-28 05:40 am 3.0 2.6 5.6 W 1.3 3.3 W STEEP 5.0
2024-05-28 05:10 am 3.3 3.0 5.6 W 1.3 3.6 W STEEP 5.0
2024-05-28 04:40 am 3.0 2.6 5.9 W 1.3 4.0 W STEEP 5.0
2024-05-28 04:10 am 3.0 2.6 5.0 W 1.3 4.0 WVERY_STEEP 4.9
2024-05-28 03:40 am 3.0 2.6 6.2 W 1.3 3.8 W STEEP 5.0
2024-05-28 03:10 am 3.0 2.6 16.0ESE 1.3 3.6 W SWELL 4.8
2024-05-28 02:40 am 3.0 2.6 12.9SSE 1.3 3.8 WNW SWELL 4.9
2024-05-28 02:10 am 3.0 2.6 4.5 W 1.3 3.6 WNWVERY_STEEP 4.7

Plot of wave energy versus frequency (and period)